ZJW847 ZSPD-ZULS

Flight info

Callsign ZJW847
Flight time N/A
Altitude 36100
Route POMOK G330 UNTAN G345 OLRIS R343 MADUK W51 LEGIV W164 ADGOL W50 XSH W80 WFX B213 LXA
Aircraft B737/M-SDE2E3FGHIRWXY/LB1

Departure

Time 2026-05-04 05:37
Airport Shanghai Pudong International Airport (ZSPD)

Arrival

Time N/A
Airport Lhasa Gonggar International Airport (ZULS)
Time Latitude Longitude Altitude Speed Heading
2026-05-04 05:24 31.15920 121.80714 22 ft 0 kts 72°
2026-05-04 05:31 31.15919 121.80711 22 ft 2 kts 72°
2026-05-04 05:31 31.15913 121.80688 25 ft 4 kts 73°
2026-05-04 05:32 31.15906 121.80660 23 ft 4 kts 72°
2026-05-04 05:32 31.15895 121.80634 26 ft 4 kts 19°
2026-05-04 05:32 31.15891 121.80632 25 ft 0 kts 340°
2026-05-04 05:33 31.15921 121.80620 22 ft 11 kts 340°
2026-05-04 05:33 31.16022 121.80579 23 ft 19 kts 342°
2026-05-04 05:34 31.16109 121.80630 23 ft 13 kts 69°
2026-05-04 05:34 31.16142 121.80741 22 ft 17 kts 70°
2026-05-04 05:34 31.16119 121.80868 23 ft 19 kts 153°
2026-05-04 05:34 31.15981 121.80922 22 ft 23 kts 161°
2026-05-04 05:35 31.15844 121.81002 21 ft 12 kts 112°
2026-05-04 05:35 31.15850 121.81058 21 ft 7 kts 66°
2026-05-04 05:35 31.15851 121.81060 21 ft 0 kts 70°
2026-05-04 05:36 31.15862 121.81164 21 ft 19 kts 112°
2026-05-04 05:36 31.15689 121.81260 20 ft 65 kts 162°
2026-05-04 05:36 31.14958 121.81527 22 ft 151 kts 160°
2026-05-04 05:37 31.13788 121.81989 390 ft 195 kts 160°
2026-05-04 05:37 31.12428 121.82536 1065 ft 217 kts 162°
2026-05-04 05:37 31.10983 121.83220 1853 ft 232 kts 151°
2026-05-04 05:38 31.08196 121.85326 3437 ft 248 kts 146°
2026-05-04 05:38 31.06752 121.86479 4126 ft 254 kts 147°
2026-05-04 05:38 31.05264 121.87636 4961 ft 260 kts 148°
2026-05-04 05:38 31.03727 121.88803 5741 ft 267 kts 148°
2026-05-04 05:39 31.02150 121.89987 6528 ft 273 kts 147°
2026-05-04 05:39 30.99128 121.92777 8078 ft 283 kts 136°
2026-05-04 05:39 30.97681 121.94374 8913 ft 290 kts 137°
2026-05-04 05:40 30.94686 121.97681 10505 ft 305 kts 130°
2026-05-04 05:40 30.93686 121.99905 11256 ft 319 kts 102°
2026-05-04 05:40 30.93695 122.02496 12061 ft 327 kts 75°
2026-05-04 05:41 30.94372 122.05036 12901 ft 336 kts 69°
2026-05-04 05:41 30.95268 122.07625 13621 ft 348 kts 56°
2026-05-04 05:41 30.96867 122.09707 14244 ft 355 kts 33°
2026-05-04 05:41 30.99103 122.10942 14845 ft 360 kts
2026-05-04 05:42 31.01606 122.11010 15476 ft 364 kts 347°
2026-05-04 05:42 31.04076 122.10225 16129 ft 372 kts 340°
2026-05-04 05:42 31.06567 122.09271 16766 ft 381 kts 339°
2026-05-04 05:42 31.09114 122.08273 17411 ft 389 kts 339°
2026-05-04 05:43 31.11703 122.07267 18073 ft 396 kts 339°
2026-05-04 05:43 31.14343 122.06256 18688 ft 402 kts 339°
2026-05-04 05:43 31.17019 122.05243 19270 ft 406 kts 339°
2026-05-04 05:45 31.35306 121.96332 23140 ft 403 kts 302°
2026-05-04 05:45 31.36633 121.93474 23605 ft 398 kts 287°
2026-05-04 05:47 31.34859 121.72322 26228 ft 398 kts 259°
2026-05-04 05:47 31.34343 121.69142 26638 ft 398 kts 259°
2026-05-04 05:47 31.33833 121.65990 27049 ft 397 kts 258°
2026-05-04 05:48 31.33322 121.62822 27474 ft 395 kts 258°
2026-05-04 05:48 31.32813 121.59669 27901 ft 394 kts 258°
2026-05-04 05:48 31.32305 121.56529 28338 ft 392 kts 258°
2026-05-04 05:48 31.31798 121.53400 28782 ft 390 kts 258°
2026-05-04 05:49 31.31294 121.50292 29228 ft 388 kts 257°
2026-05-04 05:49 31.30792 121.47198 29676 ft 385 kts 257°
2026-05-04 05:49 31.30293 121.44134 30142 ft 383 kts 257°
2026-05-04 05:49 31.29795 121.41079 30540 ft 380 kts 257°
2026-05-04 05:51 31.37145 121.21837 33461 ft 397 kts 302°
2026-05-04 05:51 31.39007 121.19477 33901 ft 392 kts 302°
2026-05-04 05:52 31.40829 121.17126 34316 ft 387 kts 301°
2026-05-04 05:52 31.42622 121.14791 34702 ft 383 kts 301°
2026-05-04 05:52 31.44435 121.12515 35086 ft 385 kts 307°
2026-05-04 05:52 31.46675 121.10682 35475 ft 401 kts 320°
2026-05-04 05:53 31.49197 121.09272 35902 ft 401 kts 323°
2026-05-04 05:54 31.67661 120.99607 36226 ft 434 kts 323°
2026-05-04 05:55 31.73228 120.96639 36222 ft 443 kts 323°
2026-05-04 05:55 31.78866 120.93635 36214 ft 445 kts 324°
2026-05-04 05:56 31.84513 120.90621 36206 ft 445 kts 324°
2026-05-04 05:56 31.90110 120.87625 36206 ft 445 kts 323°
2026-05-04 05:57 31.95747 120.84602 36204 ft 444 kts 323°
2026-05-04 05:57 32.00478 120.82057 36210 ft 443 kts 323°
2026-05-04 05:58 32.06085 120.79033 36212 ft 443 kts 323°
2026-05-04 05:58 32.11669 120.75979 36197 ft 436 kts 319°
2026-05-04 05:59 32.13991 120.73886 36230 ft 408 kts 302°
2026-05-04 05:59 32.15648 120.71256 36204 ft 393 kts 291°
2026-05-04 05:59 32.17424 120.65422 36212 ft 374 kts 272°
2026-05-04 06:00 32.17944 120.59329 36199 ft 373 kts 271°
2026-05-04 06:00 32.18396 120.53220 36196 ft 373 kts 271°
2026-05-04 06:01 32.18879 120.47104 36199 ft 374 kts 271°
2026-05-04 06:03 32.19198 120.25806 36193 ft 371 kts 249°
2026-05-04 06:03 32.18066 120.23066 36201 ft 372 kts 244°
2026-05-04 06:05 32.06934 119.98801 36187 ft 375 kts 244°
2026-05-04 06:06 32.04462 119.93388 36186 ft 375 kts 244°
2026-05-04 06:06 32.01983 119.87969 36189 ft 375 kts 244°
2026-05-04 06:07 31.99507 119.82564 36186 ft 375 kts 244°
2026-05-04 06:07 31.97027 119.77155 36187 ft 375 kts 244°
2026-05-04 06:08 31.94564 119.71795 36184 ft 375 kts 244°
2026-05-04 06:08 31.92164 119.66353 36186 ft 374 kts 246°
2026-05-04 06:09 31.89829 119.60868 36184 ft 374 kts 246°
2026-05-04 06:11 31.80397 119.38965 36182 ft 376 kts 245°
2026-05-04 06:13 31.70803 119.17154 36180 ft 376 kts 245°
2026-05-04 06:14 31.65250 119.00177 36175 ft 376 kts 270°
2026-05-04 06:14 31.65460 118.97108 36179 ft 377 kts 272°
2026-05-04 06:15 31.65954 118.91013 36184 ft 378 kts 272°
2026-05-04 06:15 31.66443 118.84860 36170 ft 378 kts 272°
2026-05-04 06:16 31.66912 118.78699 36177 ft 379 kts 272°
2026-05-04 06:16 31.67371 118.72533 36174 ft 379 kts 272°
2026-05-04 06:17 31.67825 118.66357 36183 ft 380 kts 272°
2026-05-04 06:17 31.68275 118.60205 36186 ft 380 kts 272°
2026-05-04 06:18 31.68723 118.54021 36175 ft 380 kts 272°
2026-05-04 06:20 31.70487 118.29273 36175 ft 381 kts 272°
2026-05-04 06:21 31.71569 118.13755 36175 ft 381 kts 272°
2026-05-04 06:22 31.71314 118.07632 36182 ft 379 kts 258°
2026-05-04 06:25 31.62459 117.65412 36166 ft 381 kts 257°
2026-05-04 06:26 31.61194 117.59379 36171 ft 381 kts 257°
2026-05-04 06:26 31.60012 117.53323 36160 ft 381 kts 259°
2026-05-04 06:27 31.57402 117.38099 36175 ft 381 kts 259°
2026-05-04 06:28 31.56337 117.32044 36174 ft 381 kts 259°
2026-05-04 06:28 31.55259 117.25957 36172 ft 381 kts 259°
2026-05-04 06:29 31.54171 117.19868 36162 ft 381 kts 259°
2026-05-04 06:29 31.53257 117.14766 36152 ft 381 kts 259°
2026-05-04 06:30 31.51988 117.07690 36165 ft 382 kts 259°
2026-05-04 06:30 31.51069 117.02582 36150 ft 382 kts 259°
2026-05-04 06:31 31.49978 116.96533 36154 ft 382 kts 259°
2026-05-04 06:31 31.48877 116.90442 36159 ft 382 kts 259°
2026-05-04 06:33 31.37790 116.69129 36149 ft 392 kts 238°
2026-05-04 06:34 31.34468 116.64078 36148 ft 391 kts 238°
2026-05-04 06:34 31.31155 116.59027 36157 ft 391 kts 238°
2026-05-04 06:36 31.17867 116.38803 36181 ft 392 kts 238°
2026-05-04 06:37 31.14542 116.33758 36167 ft 391 kts 238°
2026-05-04 06:37 31.11226 116.28728 36180 ft 391 kts 238°
2026-05-04 06:38 31.07925 116.23732 36183 ft 391 kts 238°
2026-05-04 06:40 30.94658 116.03714 36187 ft 389 kts 238°
2026-05-04 06:40 30.91343 115.98728 36187 ft 389 kts 238°
2026-05-04 06:41 30.88031 115.93751 36198 ft 389 kts 238°
2026-05-04 06:41 30.84719 115.88776 36197 ft 389 kts 238°
2026-05-04 06:42 30.81412 115.83771 36199 ft 390 kts 238°
2026-05-04 06:44 30.68181 115.63766 36182 ft 389 kts 238°
2026-05-04 06:44 30.64881 115.58791 36187 ft 388 kts 238°
2026-05-04 06:45 30.61583 115.53825 36180 ft 388 kts 238°
2026-05-04 06:45 30.58286 115.48867 36190 ft 387 kts 238°
2026-05-04 06:46 30.54995 115.43923 36183 ft 387 kts 238°
2026-05-04 06:46 30.51701 115.38979 36187 ft 387 kts 238°
2026-05-04 06:48 30.44111 115.20130 36190 ft 376 kts 274°
2026-05-04 06:48 30.44412 115.17122 36177 ft 377 kts 274°
2026-05-04 06:50 30.47008 114.92909 36174 ft 380 kts 274°
2026-05-04 06:51 30.47631 114.86829 36176 ft 380 kts 274°
2026-05-04 06:51 30.48252 114.80732 36174 ft 380 kts 274°
2026-05-04 06:52 30.48869 114.74655 36172 ft 381 kts 274°
2026-05-04 06:52 30.49484 114.68552 36169 ft 381 kts 274°
2026-05-04 06:53 30.50097 114.62452 36170 ft 381 kts 274°
2026-05-04 06:53 30.50707 114.56349 36167 ft 381 kts 274°
2026-05-04 06:54 30.51311 114.50278 36161 ft 381 kts 274°
2026-05-04 06:54 30.51916 114.44171 36165 ft 381 kts 274°
2026-05-04 06:55 30.52518 114.38062 36162 ft 381 kts 274°
2026-05-04 06:55 30.53118 114.31947 36157 ft 382 kts 274°
2026-05-04 06:57 30.55458 114.07425 36153 ft 382 kts 274°
2026-05-04 06:58 30.56028 114.01283 36151 ft 383 kts 274°
2026-05-04 06:58 30.56605 113.95141 36153 ft 383 kts 274°
2026-05-04 06:59 30.57172 113.89030 36145 ft 383 kts 274°
2026-05-04 06:59 30.57714 113.82841 36144 ft 382 kts 271°
2026-05-04 07:01 30.56784 113.58192 36141 ft 383 kts 267°
2026-05-04 07:02 30.56550 113.52020 36139 ft 383 kts 267°
2026-05-04 07:02 30.56316 113.45888 36143 ft 383 kts 267°
2026-05-04 07:03 30.56078 113.39707 36137 ft 383 kts 267°
2026-05-04 07:03 30.55837 113.33533 36141 ft 383 kts 267°
2026-05-04 07:04 30.55593 113.27356 36140 ft 383 kts 267°
2026-05-04 07:04 30.55346 113.21170 36136 ft 384 kts 267°
2026-05-04 07:05 30.55095 113.14970 36133 ft 384 kts 267°
2026-05-04 07:05 30.54835 113.08777 36134 ft 384 kts 267°
2026-05-04 07:06 30.54438 112.99520 36131 ft 385 kts 267°
2026-05-04 07:07 30.54171 112.93320 36130 ft 385 kts 267°
2026-05-04 07:09 30.53136 112.69529 36125 ft 386 kts 267°
2026-05-04 07:09 30.52860 112.63310 36123 ft 386 kts 267°
2026-05-04 07:10 30.52581 112.57093 36125 ft 386 kts 267°
2026-05-04 07:12 30.51434 112.32182 36122 ft 387 kts 267°
2026-05-04 07:12 30.51140 112.25951 36119 ft 387 kts 267°
2026-05-04 07:13 30.50842 112.19713 36117 ft 387 kts 267°
2026-05-04 07:13 30.50541 112.13468 36111 ft 388 kts 267°
2026-05-04 07:14 30.49775 111.97852 36112 ft 388 kts 267°
2026-05-04 07:15 30.49463 111.91599 36109 ft 388 kts 267°
2026-05-04 07:15 30.49151 111.85387 36109 ft 388 kts 267°
2026-05-04 07:16 30.48833 111.79130 36103 ft 389 kts 267°
2026-05-04 07:16 30.48512 111.72869 36107 ft 389 kts 267°
2026-05-04 07:17 30.48183 111.66603 36102 ft 389 kts 266°
2026-05-04 07:17 30.47845 111.60343 36105 ft 389 kts 266°
2026-05-04 07:18 30.47505 111.54069 36105 ft 390 kts 266°
2026-05-04 07:18 30.47138 111.47796 36097 ft 390 kts 264°
2026-05-04 07:19 30.46272 111.41578 36100 ft 391 kts 261°
2026-05-04 07:19 30.45350 111.35367 36098 ft 391 kts 262°
2026-05-04 07:20 30.44481 111.29139 36103 ft 391 kts 262°
2026-05-04 07:20 30.43628 111.22946 36095 ft 392 kts 262°
2026-05-04 07:22 30.40135 110.97940 36104 ft 394 kts 262°
2026-05-04 07:23 30.39254 110.91695 36104 ft 392 kts 262°
2026-05-04 07:23 30.38371 110.85461 36120 ft 392 kts 262°
2026-05-04 07:24 30.37490 110.79263 36130 ft 393 kts 262°
2026-05-04 07:24 30.36599 110.73016 36129 ft 393 kts 262°
2026-05-04 07:26 30.33010 110.48075 36108 ft 389 kts 262°
2026-05-04 07:27 30.32115 110.41907 36146 ft 390 kts 262°
2026-05-04 07:27 30.31212 110.35705 36081 ft 391 kts 262°
2026-05-04 07:28 30.30307 110.29512 36147 ft 391 kts 262°
2026-05-04 07:28 30.29392 110.23263 36137 ft 396 kts 262°
2026-05-04 07:29 30.28466 110.16965 36144 ft 396 kts 262°
2026-05-04 07:29 30.27539 110.10693 36125 ft 394 kts 262°
2026-05-04 07:30 30.26621 110.04501 36091 ft 391 kts 262°
2026-05-04 07:30 30.25702 109.98312 36134 ft 390 kts 262°
2026-05-04 07:31 30.24781 109.92127 36132 ft 390 kts 262°
2026-05-04 07:33 30.20942 109.67049 36130 ft 398 kts 262°
2026-05-04 07:33 30.19950 109.60740 36139 ft 398 kts 261°
2026-05-04 07:34 30.18479 109.54538 36125 ft 401 kts 255°
2026-05-04 07:34 30.16785 109.48392 36149 ft 400 kts 256°
2026-05-04 07:35 30.15168 109.42242 36157 ft 399 kts 256°
2026-05-04 07:35 30.13545 109.36108 36131 ft 398 kts 256°
2026-05-04 07:36 30.11929 109.30039 36174 ft 396 kts 256°